Time,TemperatureF,DewpointF,PressureIn,WindDirection,WindDirectionDegrees,WindSpeedMPH,WindSpeedGustMPH,Humidity,HourlyPrecipIn,Conditions,Clouds,dailyrainin,SolarRadiationWatts/m^2,SoftwareType,DateUTC
2013-10-17 00:01:00,53.8,51.2,29.71,SW,216,3.0,10.0,91,0.00,RA,,0.00,0.0,WeatherDisplay:10.37,2013-10-16 23:01:00,
2013-10-17 00:11:00,53.5,50.9,29.71,SW,215,3.0,8.0,91,0.00,CLR,,0.00,0.0,WeatherDisplay:10.37,2013-10-16 23:11:00,
2013-10-17 00:16:00,53.3,51.1,29.71,SW,215,3.0,7.0,92,0.00,CLR,,0.00,0.0,WeatherDisplay:10.37,2013-10-16 23:16:00,
2013-10-17 00:21:00,53.2,50.9,29.71,SW,215,3.0,5.0,92,0.00,CLR,,0.00,0.0,WeatherDisplay:10.37,2013-10-16 23:21:00,
2013-10-17 00:31:00,53.0,50.7,29.71,SW,215,3.0,5.0,92,0.00,CLR,,0.00,0.0,WeatherDisplay:10.37,2013-10-16 23:31:00,
2013-10-17 00:41:00,53.0,50.7,29.71,SW,215,3.0,6.0,92,0.00,CLR,,0.00,0.0,WeatherDisplay:10.37,2013-10-16 23:41:00,
2013-10-17 00:46:00,52.9,50.6,29.72,SW,215,5.0,7.0,92,0.00,CLR,,0.00,0.0,WeatherDisplay:10.37,2013-10-16 23:46:00,
2013-10-17 00:51:00,52.9,50.6,29.72,SW,215,3.0,8.0,92,0.00,CLR,,0.00,0.0,WeatherDisplay:10.37,2013-10-16 23:51:00,
2013-10-17 01:01:00,52.8,50.5,29.71,SW,215,2.0,6.0,92,0.00,CLR,,0.00,0.0,WeatherDisplay:10.37,2013-10-17 00:01:00,
2013-10-17 01:11:00,52.6,50.6,29.71,SW,215,3.0,5.0,93,0.00,CLR,,0.00,0.0,WeatherDisplay:10.37,2013-10-17 00:11:00,
2013-10-17 01:16:00,52.7,50.7,29.72,SW,215,3.0,5.0,93,0.00,CLR,,0.00,0.0,WeatherDisplay:10.37,2013-10-17 00:16:00,
2013-10-17 01:21:00,52.8,50.8,29.72,SW,215,2.0,5.0,93,0.00,CLR,,0.00,0.0,WeatherDisplay:10.37,2013-10-17 00:21:00,
2013-10-17 01:31:00,52.6,50.6,29.72,SW,215,2.0,4.0,93,0.00,CLR,,0.00,0.0,WeatherDisplay:10.37,2013-10-17 00:31:00,
2013-10-17 01:41:00,52.4,50.4,29.72,SW,215,2.0,4.0,93,0.00,CLR,,0.00,0.0,WeatherDisplay:10.37,2013-10-17 00:41:00,
2013-10-17 01:46:00,52.3,50.3,29.72,SW,215,2.0,5.0,93,0.00,CLR,,0.00,0.0,WeatherDisplay:10.37,2013-10-17 00:46:00,
2013-10-17 01:51:00,52.3,50.3,29.72,SW,215,2.0,5.0,93,0.00,CLR,,0.00,0.0,WeatherDisplay:10.37,2013-10-17 00:51:00,
2013-10-17 02:01:00,52.4,50.7,29.73,SW,215,3.0,7.0,94,0.00,CLR,,0.00,0.0,WeatherDisplay:10.37,2013-10-17 01:01:00,
2013-10-17 02:11:00,52.7,51.1,29.73,SW,215,5.0,8.0,94,0.00,CLR,,0.00,0.0,WeatherDisplay:10.37,2013-10-17 01:11:00,
2013-10-17 02:16:00,52.7,51.0,29.73,SW,215,3.0,7.0,94,0.00,CLR,,0.00,0.0,WeatherDisplay:10.37,2013-10-17 01:16:00,
2013-10-17 02:21:00,52.6,50.9,29.73,SW,215,5.0,6.0,94,0.00,CLR,,0.00,0.0,WeatherDisplay:10.37,2013-10-17 01:21:00,
2013-10-17 02:31:00,52.4,50.7,29.73,SW,215,5.0,7.0,94,0.00,CLR,,0.00,0.0,WeatherDisplay:10.37,2013-10-17 01:31:00,
2013-10-17 02:41:00,52.3,50.6,29.74,SW,215,5.0,6.0,94,0.00,CLR,,0.00,0.0,WeatherDisplay:10.37,2013-10-17 01:41:00,
2013-10-17 02:46:00,52.3,50.9,29.74,SW,215,6.0,9.0,95,0.00,CLR,,0.00,0.0,WeatherDisplay:10.37,2013-10-17 01:46:00,
2013-10-17 02:51:00,52.4,51.0,29.74,SW,215,6.0,9.0,95,0.00,CLR,,0.00,0.0,WeatherDisplay:10.37,2013-10-17 01:51:00,
2013-10-17 02:56:00,52.5,51.1,29.74,SW,215,6.0,7.0,95,0.00,CLR,,0.00,0.0,WeatherDisplay:10.37,2013-10-17 01:56:00,
2013-10-17 03:01:00,52.4,51.0,29.74,SW,215,5.0,7.0,95,0.00,CLR,,0.00,0.0,WeatherDisplay:10.37,2013-10-17 02:01:00,
2013-10-17 03:11:00,52.1,50.4,29.74,SW,215,5.0,6.0,94,0.00,CLR,,0.00,0.0,WeatherDisplay:10.37,2013-10-17 02:11:00,
2013-10-17 03:16:00,52.1,50.4,29.74,SW,215,3.0,5.0,94,0.00,CLR,,0.00,0.0,WeatherDisplay:10.37,2013-10-17 02:16:00,
2013-10-17 03:21:00,52.0,50.3,29.74,SW,215,5.0,6.0,94,0.00,CLR,,0.00,0.0,WeatherDisplay:10.37,2013-10-17 02:21:00,
2013-10-17 03:26:00,52.0,50.6,29.74,SW,215,3.0,7.0,95,0.00,CLR,,0.00,0.0,WeatherDisplay:10.37,2013-10-17 02:26:00,
2013-10-17 03:31:00,52.0,50.6,29.74,SW,215,5.0,6.0,95,0.00,CLR,,0.00,0.0,WeatherDisplay:10.37,2013-10-17 02:31:00,
2013-10-17 03:37:00,52.2,50.8,29.74,SW,215,3.0,7.0,95,0.00,CLR,,0.00,0.0,WeatherDisplay:10.37,2013-10-17 02:37:00,
2013-10-17 03:48:00,52.5,51.1,29.74,SW,215,3.0,5.0,95,0.00,CLR,,0.00,0.0,WeatherDisplay:10.37,2013-10-17 02:48:00,
2013-10-17 03:56:00,52.7,51.3,29.74,SW,215,3.0,6.0,95,0.00,CLR,,0.00,0.0,WeatherDisplay:10.37,2013-10-17 02:56:00,
2013-10-17 04:01:00,52.8,51.4,29.74,SW,215,3.0,6.0,95,0.00,CLR,,0.00,0.0,WeatherDisplay:10.37,2013-10-17 03:01:00,
2013-10-17 04:11:00,52.7,51.0,29.75,SW,215,3.0,6.0,94,0.00,CLR,,0.00,0.0,WeatherDisplay:10.37,2013-10-17 03:11:00,
2013-10-17 04:16:00,52.6,51.2,29.75,SW,215,3.0,5.0,95,0.00,CLR,,0.00,0.0,WeatherDisplay:10.37,2013-10-17 03:16:00,
2013-10-17 04:21:00,52.5,51.1,29.75,SW,215,3.0,7.0,95,0.00,CLR,,0.00,0.0,WeatherDisplay:10.37,2013-10-17 03:21:00,
2013-10-17 04:26:00,52.6,51.2,29.75,SW,215,3.0,6.0,95,0.00,CLR,,0.00,0.0,WeatherDisplay:10.37,2013-10-17 03:26:00,
2013-10-17 04:31:00,52.9,51.5,29.75,SW,215,3.0,6.0,95,0.02,RA,,0.02,0.0,WeatherDisplay:10.37,2013-10-17 03:31:00,
2013-10-17 04:41:00,53.4,52.3,29.75,SW,215,3.0,5.0,96,0.00,,,0.02,0.0,WeatherDisplay:10.37,2013-10-17 03:41:00,
2013-10-17 04:46:00,53.5,52.1,29.75,SW,215,2.0,5.0,95,0.00,CLR,,0.02,0.0,WeatherDisplay:10.37,2013-10-17 03:46:00,
2013-10-17 04:51:00,53.4,52.0,29.75,SW,215,3.0,4.0,95,0.00,CLR,,0.02,0.0,WeatherDisplay:10.37,2013-10-17 03:51:00,
2013-10-17 04:56:00,53.4,52.0,29.75,SW,215,5.0,6.0,95,0.00,CLR,,0.02,0.0,WeatherDisplay:10.37,2013-10-17 03:56:00,
2013-10-17 05:01:00,53.4,52.0,29.75,SW,215,5.0,6.0,95,0.00,CLR,,0.02,0.0,WeatherDisplay:10.37,2013-10-17 04:01:00,
2013-10-17 05:05:00,53.5,52.4,29.76,SW,215,5.0,7.0,96,0.00,CLR,,0.02,0.0,WeatherDisplay:10.37,2013-10-17 04:05:00,
2013-10-17 05:10:00,53.9,52.8,29.75,SW,214,6.0,9.0,96,0.01,RA,,0.02,0.0,WeatherDisplay:10.37,2013-10-17 04:10:00,
2013-10-17 05:15:00,54.3,53.2,29.75,SW,214,5.0,8.0,96,0.00,RA,,0.02,0.0,WeatherDisplay:10.37,2013-10-17 04:15:00,
2013-10-17 05:20:00,54.4,53.0,29.76,SW,214,3.0,8.0,95,0.00,,,0.02,0.0,WeatherDisplay:10.37,2013-10-17 04:20:00,
2013-10-17 05:25:00,54.2,52.8,29.75,SW,214,3.0,7.0,95,0.00,CLR,,0.02,0.0,WeatherDisplay:10.37,2013-10-17 04:25:00,
2013-10-17 05:30:00,53.9,52.5,29.76,SW,214,5.0,7.0,95,0.00,CLR,,0.02,0.0,WeatherDisplay:10.37,2013-10-17 04:30:00,
2013-10-17 05:40:00,53.7,52.3,29.76,SW,214,5.0,8.0,95,0.00,CLR,,0.02,0.0,WeatherDisplay:10.37,2013-10-17 04:40:00,
2013-10-17 05:45:00,53.6,52.2,29.76,SW,214,5.0,7.0,95,0.00,CLR,,0.02,0.0,WeatherDisplay:10.37,2013-10-17 04:45:00,
2013-10-17 05:50:00,53.5,52.2,29.76,SW,214,5.0,8.0,95,0.00,CLR,,0.02,0.0,WeatherDisplay:10.37,2013-10-17 04:50:00,
2013-10-17 05:55:00,53.5,52.2,29.76,SW,214,5.0,8.0,95,0.00,CLR,,0.02,0.0,WeatherDisplay:10.37,2013-10-17 04:55:00,
2013-10-17 06:00:00,53.6,52.2,29.76,SW,214,5.0,8.0,95,0.00,CLR,,0.02,0.0,WeatherDisplay:10.37,2013-10-17 05:00:00,
2013-10-17 06:10:00,53.7,52.6,29.76,SW,214,5.0,8.0,96,0.00,CLR,,0.02,0.0,WeatherDisplay:10.37,2013-10-17 05:10:00,
2013-10-17 06:15:00,54.0,52.9,29.76,SW,214,5.0,8.0,96,0.00,CLR,,0.02,0.0,WeatherDisplay:10.37,2013-10-17 05:15:00,
2013-10-17 06:25:00,54.2,53.1,29.76,SW,214,3.0,6.0,96,0.00,CLR,,0.02,0.0,WeatherDisplay:10.37,2013-10-17 05:25:00,
2013-10-17 06:30:00,54.3,53.2,29.77,SW,214,5.0,7.0,96,0.00,CLR,,0.02,0.0,WeatherDisplay:10.37,2013-10-17 05:30:00,
2013-10-17 06:35:00,54.3,53.2,29.77,SW,214,5.0,6.0,96,0.00,CLR,,0.02,0.0,WeatherDisplay:10.37,2013-10-17 05:35:00,
2013-10-17 06:40:00,54.3,53.2,29.77,SW,214,5.0,7.0,96,0.00,CLR,,0.02,0.0,WeatherDisplay:10.37,2013-10-17 05:40:00,
2013-10-17 06:45:00,54.2,52.8,29.77,SW,214,3.0,7.0,95,0.00,CLR,,0.02,0.0,WeatherDisplay:10.37,2013-10-17 05:45:00,
2013-10-17 06:50:00,54.1,52.7,29.77,SW,214,2.0,6.0,95,0.00,CLR,,0.02,0.0,WeatherDisplay:10.37,2013-10-17 05:50:00,
2013-10-17 06:55:00,54.0,52.6,29.77,SW,214,3.0,5.0,95,0.00,CLR,,0.02,0.0,WeatherDisplay:10.37,2013-10-17 05:55:00,
2013-10-17 07:00:00,54.0,52.9,29.77,SW,214,3.0,5.0,96,0.00,CLR,,0.02,0.0,WeatherDisplay:10.37,2013-10-17 06:00:00,
2013-10-17 07:10:00,54.1,53.0,29.77,SW,214,2.0,6.0,96,0.00,CLR,,0.02,0.0,WeatherDisplay:10.37,2013-10-17 06:10:00,
2013-10-17 07:20:00,54.3,53.2,29.77,SW,214,2.0,5.0,96,0.00,CLR,,0.02,0.0,WeatherDisplay:10.37,2013-10-17 06:20:00,
2013-10-17 07:30:00,54.1,52.7,29.77,SW,214,2.0,5.0,95,0.00,CLR,,0.02,0.0,WeatherDisplay:10.37,2013-10-17 06:30:00,
2013-10-17 07:35:00,54.0,52.9,29.77,SW,214,3.0,4.0,96,0.00,CLR,,0.02,0.0,WeatherDisplay:10.37,2013-10-17 06:35:00,
2013-10-17 07:45:00,53.8,52.4,29.78,SW,214,1.0,3.0,95,0.00,CLR,,0.02,0.0,WeatherDisplay:10.37,2013-10-17 06:45:00,
2013-10-17 07:50:00,53.8,52.4,29.78,SW,214,2.0,4.0,95,0.00,CLR,,0.02,0.0,WeatherDisplay:10.37,2013-10-17 06:50:00,
2013-10-17 07:55:00,53.7,52.3,29.78,SW,214,1.0,3.0,95,0.00,CLR,,0.02,0.0,WeatherDisplay:10.37,2013-10-17 06:55:00,
2013-10-17 08:00:00,53.6,52.5,29.78,SW,214,2.0,4.0,96,0.00,OVC,,0.02,0.0,WeatherDisplay:10.37,2013-10-17 07:00:00,
2013-10-17 08:10:00,53.8,52.7,29.78,SW,214,3.0,5.0,96,0.00,SCT,,0.02,5.0,WeatherDisplay:10.37,2013-10-17 07:10:00,
2013-10-17 08:21:00,53.9,52.8,29.79,SW,214,3.0,5.0,96,0.00,BKN,,0.02,7.0,WeatherDisplay:10.37,2013-10-17 07:21:00,
2013-10-17 08:30:00,53.7,52.6,29.79,SW,214,2.0,4.0,96,0.00,BKN,,0.02,12.0,WeatherDisplay:10.37,2013-10-17 07:30:00,
2013-10-17 08:40:00,53.6,52.5,29.80,SW,214,2.0,4.0,96,0.00,SCT,,0.02,30.0,WeatherDisplay:10.37,2013-10-17 07:40:00,
2013-10-17 08:45:00,53.7,52.5,29.80,SW,214,2.0,4.0,96,0.00,BKN,,0.02,28.0,WeatherDisplay:10.37,2013-10-17 07:45:00,
2013-10-17 08:50:00,53.8,52.7,29.80,SW,214,2.0,4.0,96,0.00,BKN,,0.02,28.0,WeatherDisplay:10.37,2013-10-17 07:50:00,
2013-10-17 08:55:00,53.9,52.8,29.80,SW,214,2.0,4.0,96,0.00,BKN,,0.02,37.0,WeatherDisplay:10.37,2013-10-17 07:55:00,
2013-10-17 09:05:00,54.5,53.7,29.81,SW,214,3.0,4.0,97,0.01,RA,,0.03,32.0,WeatherDisplay:10.37,2013-10-17 08:05:00,
2013-10-17 09:10:00,54.7,53.6,29.81,SW,214,2.0,5.0,96,0.00,RA,,0.03,74.0,WeatherDisplay:10.37,2013-10-17 08:10:00,
2013-10-17 09:15:00,55.1,54.3,29.81,SW,214,3.0,5.0,97,0.00,SCT,,0.03,93.0,WeatherDisplay:10.37,2013-10-17 08:15:00,
2013-10-17 09:20:00,55.5,54.7,29.81,SW,214,2.0,6.0,97,0.00,FEW,,0.03,121.0,WeatherDisplay:10.37,2013-10-17 08:20:00,
2013-10-17 09:30:00,56.4,55.5,29.81,SW,214,5.0,7.0,97,0.00,CLR,,0.03,109.0,WeatherDisplay:10.37,2013-10-17 08:30:00,
2013-10-17 09:40:00,56.3,55.2,29.81,SSW,212,5.0,8.0,96,0.00,SCT,,0.03,91.0,WeatherDisplay:10.37,2013-10-17 08:40:00,
2013-10-17 09:45:00,56.5,55.4,29.81,SSW,212,5.0,7.0,96,0.00,FEW,,0.03,174.0,WeatherDisplay:10.37,2013-10-17 08:45:00,
2013-10-17 09:50:00,56.7,55.6,29.81,SSW,211,5.0,8.0,96,0.00,CLR,,0.03,244.0,WeatherDisplay:10.37,2013-10-17 08:50:00,
2013-10-17 09:55:00,57.0,55.9,29.81,SSW,207,5.0,8.0,96,0.00,CLR,,0.03,214.0,WeatherDisplay:10.37,2013-10-17 08:55:00,
2013-10-17 10:01:00,57.0,55.9,29.81,SSW,201,2.0,7.0,96,0.00,CLR,,0.03,214.0,WeatherDisplay:10.37,2013-10-17 09:01:00,
2013-10-17 10:10:00,57.2,56.0,29.82,South,190,6.0,9.0,96,0.00,CLR,,0.03,237.0,WeatherDisplay:10.37,2013-10-17 09:10:00,
2013-10-17 10:20:00,57.4,56.0,29.82,South,187,6.0,9.0,95,0.00,CLR,,0.03,207.0,WeatherDisplay:10.37,2013-10-17 09:20:00,
2013-10-17 10:25:00,57.6,56.2,29.82,SSW,192,6.0,12.0,95,0.00,CLR,,0.03,334.0,WeatherDisplay:10.37,2013-10-17 09:25:00,
2013-10-17 10:31:00,57.9,56.5,29.82,SSW,212,5.0,10.0,95,0.00,CLR,,0.03,309.0,WeatherDisplay:10.37,2013-10-17 09:31:00,
2013-10-17 10:40:00,58.1,56.1,29.82,SSW,211,5.0,9.0,93,0.00,CLR,,0.03,178.0,WeatherDisplay:10.37,2013-10-17 09:40:00,
2013-10-17 10:45:00,58.5,56.8,29.82,SSW,211,5.0,9.0,94,0.00,CLR,,0.03,457.0,WeatherDisplay:10.37,2013-10-17 09:45:00,
2013-10-17 10:50:00,58.7,56.7,29.82,SSW,211,7.0,12.0,93,0.00,FEW,,0.03,114.0,WeatherDisplay:10.37,2013-10-17 09:50:00,
2013-10-17 11:01:00,58.7,56.7,29.82,SSW,211,6.0,12.0,93,0.00,FEW,,0.03,396.0,WeatherDisplay:10.37,2013-10-17 10:01:00,
2013-10-17 11:10:00,58.6,56.3,29.82,SSW,200,5.0,8.0,92,0.00,BKN,,0.03,81.0,WeatherDisplay:10.37,2013-10-17 10:10:00,
2013-10-17 11:16:00,58.6,56.3,29.83,SSW,199,3.0,6.0,92,0.00,BKN,,0.03,227.0,WeatherDisplay:10.37,2013-10-17 10:16:00,
2013-10-17 11:25:00,59.0,56.7,29.83,SSW,205,8.0,13.0,92,0.00,FEW,,0.03,415.0,WeatherDisplay:10.37,2013-10-17 10:25:00,
2013-10-17 11:31:00,59.3,56.7,29.83,SSW,203,6.0,12.0,91,0.00,CLR,,0.03,422.0,WeatherDisplay:10.37,2013-10-17 10:31:00,
2013-10-17 11:41:00,59.5,56.6,29.83,SSW,197,8.0,13.0,90,0.00,CLR,,0.03,141.0,WeatherDisplay:10.37,2013-10-17 10:41:00,
2013-10-17 11:46:00,59.3,56.4,29.83,SSW,200,9.0,12.0,90,0.00,SCT,,0.03,132.0,WeatherDisplay:10.37,2013-10-17 10:46:00,
2013-10-17 11:51:00,59.3,56.7,29.83,South,190,7.0,12.0,91,0.00,BKN,,0.03,345.0,WeatherDisplay:10.37,2013-10-17 10:51:00,
2013-10-17 12:01:00,59.8,56.9,29.83,SSW,195,9.0,14.0,90,0.00,CLR,,0.03,383.0,WeatherDisplay:10.37,2013-10-17 11:01:00,
2013-10-17 12:11:00,59.5,56.6,29.83,SSW,194,6.0,16.0,90,0.00,SCT,,0.03,176.0,WeatherDisplay:10.37,2013-10-17 11:11:00,
2013-10-17 12:16:00,59.7,56.8,29.83,South,187,8.0,12.0,90,0.00,SCT,,0.03,221.0,WeatherDisplay:10.37,2013-10-17 11:16:00,
2013-10-17 12:21:00,59.9,56.9,29.83,South,178,8.0,12.0,90,0.00,SCT,,0.03,221.0,WeatherDisplay:10.37,2013-10-17 11:21:00,
2013-10-17 12:31:00,60.7,57.1,29.83,South,187,8.0,14.0,88,0.00,SCT,,0.03,209.0,WeatherDisplay:10.37,2013-10-17 11:31:00,
2013-10-17 12:41:00,61.2,57.3,29.83,South,187,8.0,12.0,87,0.00,FEW,,0.03,455.0,WeatherDisplay:10.37,2013-10-17 11:41:00,
2013-10-17 12:46:00,61.3,57.1,29.83,South,188,7.0,10.0,86,0.00,CLR,,0.03,475.0,WeatherDisplay:10.37,2013-10-17 11:46:00,
2013-10-17 12:51:00,61.4,56.5,29.83,South,187,7.0,13.0,84,0.00,CLR,,0.03,443.0,WeatherDisplay:10.37,2013-10-17 11:51:00,
2013-10-17 13:01:00,61.8,56.6,29.83,South,171,8.0,12.0,83,0.00,CLR,,0.03,473.0,WeatherDisplay:10.37,2013-10-17 12:01:00,
2013-10-17 13:11:00,62.3,56.7,29.83,SSE,168,6.0,12.0,82,0.00,CLR,,0.03,473.0,WeatherDisplay:10.37,2013-10-17 12:11:00,
2013-10-17 13:16:00,62.5,56.9,29.83,South,169,8.0,14.0,82,0.00,CLR,,0.03,527.0,WeatherDisplay:10.37,2013-10-17 12:16:00,
2013-10-17 13:21:00,62.6,56.3,29.83,SSE,167,8.0,12.0,80,0.00,CLR,,0.03,464.0,WeatherDisplay:10.37,2013-10-17 12:21:00,
2013-10-17 13:31:00,62.5,56.6,29.83,SSE,168,10.0,13.0,81,0.00,CLR,,0.03,480.0,WeatherDisplay:10.37,2013-10-17 12:31:00,
2013-10-17 13:41:00,63.0,57.4,29.83,SSE,166,6.0,10.0,82,0.00,CLR,,0.03,510.0,WeatherDisplay:10.37,2013-10-17 12:41:00,
2013-10-17 13:46:00,63.0,56.7,29.83,South,174,6.0,12.0,80,0.00,CLR,,0.03,461.0,WeatherDisplay:10.37,2013-10-17 12:46:00,
2013-10-17 13:51:00,63.0,56.7,29.83,SSE,166,6.0,10.0,80,0.00,CLR,,0.03,510.0,WeatherDisplay:10.37,2013-10-17 12:51:00,
2013-10-17 14:01:00,63.0,57.1,29.83,SSE,154,6.0,9.0,81,0.00,SCT,,0.03,232.0,WeatherDisplay:10.37,2013-10-17 13:01:00,
2013-10-17 14:11:00,63.5,57.3,29.83,SE,139,6.0,9.0,80,0.00,CLR,,0.03,464.0,WeatherDisplay:10.37,2013-10-17 13:11:00,
2013-10-17 14:16:00,63.9,57.6,29.83,SE,141,5.0,9.0,80,0.00,CLR,,0.03,406.0,WeatherDisplay:10.37,2013-10-17 13:16:00,
2013-10-17 14:21:00,64.0,57.4,29.83,SE,137,5.0,9.0,79,0.00,CLR,,0.03,373.0,WeatherDisplay:10.37,2013-10-17 13:21:00,
2013-10-17 14:31:00,63.4,56.8,29.83,SE,137,6.0,8.0,79,0.00,SCT,,0.03,174.0,WeatherDisplay:10.37,2013-10-17 13:31:00,
2013-10-17 14:41:00,62.6,56.4,29.83,SE,132,6.0,8.0,80,0.00,BKN,,0.03,153.0,WeatherDisplay:10.37,2013-10-17 13:41:00,
2013-10-17 14:46:00,62.5,56.2,29.83,SE,132,5.0,8.0,80,0.00,BKN,,0.03,211.0,WeatherDisplay:10.37,2013-10-17 13:46:00,
2013-10-17 14:51:00,62.4,56.5,29.83,SE,131,5.0,9.0,81,0.00,BKN,,0.03,239.0,WeatherDisplay:10.37,2013-10-17 13:51:00,
2013-10-17 15:01:00,63.1,57.8,29.83,SE,136,8.0,12.0,83,0.00,CLR,,0.03,492.0,WeatherDisplay:10.37,2013-10-17 14:01:00,
2013-10-17 15:11:00,64.6,57.9,29.83,SE,131,7.0,12.0,79,0.00,CLR,,0.03,330.0,WeatherDisplay:10.37,2013-10-17 14:11:00,
2013-10-17 15:16:00,64.8,57.4,29.82,SE,130,8.0,12.0,77,0.00,CLR,,0.03,422.0,WeatherDisplay:10.37,2013-10-17 14:16:00,
2013-10-17 15:21:00,64.7,57.3,29.82,SE,143,7.0,12.0,77,0.00,CLR,,0.03,387.0,WeatherDisplay:10.37,2013-10-17 14:21:00,
2013-10-17 15:31:00,64.0,56.6,29.82,SSE,150,8.0,12.0,77,0.00,CLR,,0.03,362.0,WeatherDisplay:10.37,2013-10-17 14:31:00,
2013-10-17 15:41:00,64.4,57.4,29.82,SE,141,7.0,12.0,78,0.00,CLR,,0.03,330.0,WeatherDisplay:10.37,2013-10-17 14:41:00,
2013-10-17 15:46:00,64.7,57.3,29.81,SE,138,8.0,12.0,77,0.00,CLR,,0.03,418.0,WeatherDisplay:10.37,2013-10-17 14:46:00,
2013-10-17 15:51:00,64.9,57.5,29.81,SSE,147,8.0,12.0,77,0.00,CLR,,0.03,422.0,WeatherDisplay:10.37,2013-10-17 14:51:00,
2013-10-17 16:01:00,65.4,57.6,29.81,SE,134,7.0,12.0,76,0.00,CLR,,0.03,362.0,WeatherDisplay:10.37,2013-10-17 15:01:00,
2013-10-17 16:11:00,65.1,57.0,29.81,SSE,149,6.0,12.0,75,0.00,CLR,,0.03,221.0,WeatherDisplay:10.37,2013-10-17 15:11:00,
2013-10-17 16:18:00,65.2,57.1,29.81,SSE,147,8.0,13.0,75,0.00,CLR,,0.03,322.0,WeatherDisplay:10.37,2013-10-17 15:18:00,
2013-10-17 16:23:00,65.2,57.1,29.81,SE,138,7.0,10.0,75,0.00,CLR,,0.03,148.0,WeatherDisplay:10.37,2013-10-17 15:23:00,
2013-10-17 16:31:00,64.0,56.2,29.81,SE,138,7.0,9.0,76,0.00,SCT,,0.03,76.0,WeatherDisplay:10.37,2013-10-17 15:31:00,
2013-10-17 16:41:00,62.5,55.9,29.81,SE,145,6.0,9.0,79,0.00,BKN,,0.03,74.0,WeatherDisplay:10.37,2013-10-17 15:41:00,
2013-10-17 16:46:00,62.0,55.8,29.81,SE,142,7.0,9.0,80,0.00,BKN,,0.03,63.0,WeatherDisplay:10.37,2013-10-17 15:46:00,
2013-10-17 16:51:00,61.6,55.7,29.81,SE,136,5.0,9.0,81,0.00,BKN,,0.03,65.0,WeatherDisplay:10.37,2013-10-17 15:51:00,
2013-10-17 17:01:00,61.3,55.8,29.81,SE,128,6.0,8.0,82,0.00,BKN,,0.03,123.0,WeatherDisplay:10.37,2013-10-17 16:01:00,
2013-10-17 17:11:00,61.4,56.2,29.81,SE,129,7.0,8.0,83,0.00,SCT,,0.03,81.0,WeatherDisplay:10.37,2013-10-17 16:11:00,
2013-10-17 17:16:00,61.3,56.1,29.81,SE,136,5.0,7.0,83,0.00,SCT,,0.03,53.0,WeatherDisplay:10.37,2013-10-17 16:16:00,
2013-10-17 17:21:00,61.1,55.6,29.81,SE,142,3.0,7.0,82,0.00,BKN,,0.03,47.0,WeatherDisplay:10.37,2013-10-17 16:21:00,
2013-10-17 17:31:00,60.6,55.4,29.81,SE,142,3.0,6.0,83,0.00,BKN,,0.03,32.0,WeatherDisplay:10.37,2013-10-17 16:31:00,
2013-10-17 17:41:00,60.2,55.3,29.80,SE,131,6.0,9.0,84,0.00,BKN,,0.03,35.0,WeatherDisplay:10.37,2013-10-17 16:41:00,
2013-10-17 17:51:00,59.9,55.3,29.81,SE,132,5.0,7.0,85,0.00,BKN,,0.03,32.0,WeatherDisplay:10.37,2013-10-17 16:51:00,
2013-10-17 18:01:00,59.6,55.4,29.81,SE,133,5.0,7.0,86,0.00,BKN,,0.03,19.0,WeatherDisplay:10.37,2013-10-17 17:01:00,
2013-10-17 18:11:00,59.4,55.2,29.81,SE,129,5.0,8.0,86,0.00,BKN,,0.03,18.0,WeatherDisplay:10.37,2013-10-17 17:11:00,
2013-10-17 18:21:00,59.2,55.0,29.81,SE,128,6.0,9.0,86,0.00,BKN,,0.03,14.0,WeatherDisplay:10.37,2013-10-17 17:21:00,
2013-10-17 18:31:00,58.9,55.1,29.81,SE,128,5.0,7.0,87,0.00,OVC,,0.03,0.0,WeatherDisplay:10.37,2013-10-17 17:31:00,
2013-10-17 18:41:00,58.7,54.9,29.81,SE,128,3.0,7.0,87,0.00,OVC,,0.03,0.0,WeatherDisplay:10.37,2013-10-17 17:41:00,
2013-10-17 18:46:00,58.6,54.7,29.80,SE,128,3.0,7.0,87,0.00,OVC,,0.03,0.0,WeatherDisplay:10.37,2013-10-17 17:46:00,
2013-10-17 18:51:00,58.5,54.6,29.80,SE,128,5.0,7.0,87,0.00,OVC,,0.03,0.0,WeatherDisplay:10.37,2013-10-17 17:51:00,
2013-10-17 19:01:00,58.2,54.7,29.80,SE,129,3.0,6.0,88,0.00,CLR,,0.03,0.0,WeatherDisplay:10.37,2013-10-17 18:01:00,
2013-10-17 19:11:00,57.9,54.4,29.80,SE,128,5.0,7.0,88,0.00,CLR,,0.03,0.0,WeatherDisplay:10.37,2013-10-17 18:11:00,
2013-10-17 19:16:00,57.8,54.2,29.80,SE,128,3.0,5.0,88,0.00,CLR,,0.03,0.0,WeatherDisplay:10.37,2013-10-17 18:16:00,
2013-10-17 19:21:00,57.6,54.4,29.80,SE,127,5.0,8.0,89,0.00,CLR,,0.03,0.0,WeatherDisplay:10.37,2013-10-17 18:21:00,
2013-10-17 19:26:00,57.5,54.3,29.80,SE,124,3.0,7.0,89,0.00,CLR,,0.03,0.0,WeatherDisplay:10.37,2013-10-17 18:26:00,
2013-10-17 19:31:00,57.4,54.8,29.80,ESE,123,3.0,7.0,91,0.00,CLR,,0.03,0.0,WeatherDisplay:10.37,2013-10-17 18:31:00,
2013-10-17 19:41:00,57.3,54.4,29.80,SE,131,6.0,9.0,90,0.00,CLR,,0.03,0.0,WeatherDisplay:10.37,2013-10-17 18:41:00,
2013-10-17 19:46:00,57.2,54.3,29.80,SE,134,3.0,7.0,90,0.00,CLR,,0.03,0.0,WeatherDisplay:10.37,2013-10-17 18:46:00,
2013-10-17 19:51:00,57.0,54.1,29.80,SE,136,2.0,6.0,90,0.00,CLR,,0.03,0.0,WeatherDisplay:10.37,2013-10-17 18:51:00,
2013-10-17 19:56:00,56.7,53.8,29.80,SE,136,3.0,6.0,90,0.00,CLR,,0.03,0.0,WeatherDisplay:10.37,2013-10-17 18:56:00,
2013-10-17 20:01:00,56.6,54.0,29.80,SE,136,2.0,5.0,91,0.00,CLR,,0.03,0.0,WeatherDisplay:10.37,2013-10-17 19:01:00,
2013-10-17 20:11:00,56.0,53.4,29.80,SE,136,3.0,6.0,91,0.00,CLR,,0.03,0.0,WeatherDisplay:10.37,2013-10-17 19:11:00,
2013-10-17 20:16:00,56.0,53.7,29.80,SE,136,3.0,6.0,92,0.00,CLR,,0.03,0.0,WeatherDisplay:10.37,2013-10-17 19:16:00,
2013-10-17 20:21:00,56.0,53.7,29.80,SE,136,2.0,7.0,92,0.00,CLR,,0.03,0.0,WeatherDisplay:10.37,2013-10-17 19:21:00,
2013-10-17 20:26:00,55.9,53.6,29.80,SE,136,3.0,7.0,92,0.00,CLR,,0.03,0.0,WeatherDisplay:10.37,2013-10-17 19:26:00,
2013-10-17 20:31:00,56.0,54.0,29.80,SE,136,5.0,6.0,93,0.00,CLR,,0.03,0.0,WeatherDisplay:10.37,2013-10-17 19:31:00,
2013-10-17 20:36:00,56.1,54.1,29.80,SE,136,3.0,7.0,93,0.00,CLR,,0.03,0.0,WeatherDisplay:10.37,2013-10-17 19:36:00,
2013-10-17 20:41:00,56.1,54.1,29.80,SE,136,3.0,6.0,93,0.00,CLR,,0.03,0.0,WeatherDisplay:10.37,2013-10-17 19:41:00,
2013-10-17 20:46:00,56.1,54.1,29.80,SE,136,5.0,7.0,93,0.00,CLR,,0.03,0.0,WeatherDisplay:10.37,2013-10-17 19:46:00,
2013-10-17 20:51:00,56.2,54.2,29.80,SE,136,5.0,7.0,93,0.00,CLR,,0.03,0.0,WeatherDisplay:10.37,2013-10-17 19:51:00,
2013-10-17 20:56:00,56.2,54.2,29.80,SE,136,3.0,7.0,93,0.00,CLR,,0.03,0.0,WeatherDisplay:10.37,2013-10-17 19:56:00,
2013-10-17 21:01:00,56.2,54.2,29.81,SE,137,6.0,9.0,93,0.00,CLR,,0.03,0.0,WeatherDisplay:10.37,2013-10-17 20:01:00,
2013-10-17 21:11:00,56.4,54.4,29.80,SE,141,6.0,9.0,93,0.00,CLR,,0.03,0.0,WeatherDisplay:10.37,2013-10-17 20:11:00,
2013-10-17 21:16:00,56.5,54.5,29.80,SE,144,6.0,9.0,93,0.00,CLR,,0.03,0.0,WeatherDisplay:10.37,2013-10-17 20:16:00,
2013-10-17 21:21:00,56.5,54.5,29.80,SE,146,6.0,8.0,93,0.00,CLR,,0.03,0.0,WeatherDisplay:10.37,2013-10-17 20:21:00,
2013-10-17 21:31:00,56.4,54.4,29.80,SSE,147,5.0,9.0,93,0.00,CLR,,0.03,0.0,WeatherDisplay:10.37,2013-10-17 20:31:00,
2013-10-17 21:41:00,56.4,54.7,29.80,SE,144,6.0,8.0,94,0.00,CLR,,0.03,0.0,WeatherDisplay:10.37,2013-10-17 20:41:00,
2013-10-17 21:46:00,56.4,54.7,29.80,SE,140,6.0,9.0,94,0.00,CLR,,0.03,0.0,WeatherDisplay:10.37,2013-10-17 20:46:00,
2013-10-17 21:51:00,56.5,54.8,29.80,SE,139,5.0,8.0,94,0.00,CLR,,0.03,0.0,WeatherDisplay:10.37,2013-10-17 20:51:00,
2013-10-17 22:01:00,56.6,54.9,29.80,SE,142,5.0,9.0,94,0.00,CLR,,0.03,0.0,WeatherDisplay:10.37,2013-10-17 21:01:00,
2013-10-17 22:06:00,56.6,54.9,29.80,SE,142,6.0,8.0,94,0.00,CLR,,0.03,0.0,WeatherDisplay:10.37,2013-10-17 21:06:00,
2013-10-17 22:11:00,56.6,54.9,29.80,SE,143,5.0,8.0,94,0.00,CLR,,0.03,0.0,WeatherDisplay:10.37,2013-10-17 21:11:00,
2013-10-17 22:16:00,56.6,54.9,29.80,SE,144,6.0,9.0,94,0.00,CLR,,0.03,0.0,WeatherDisplay:10.37,2013-10-17 21:16:00,
2013-10-17 22:21:00,56.6,54.9,29.80,SE,144,5.0,7.0,94,0.00,CLR,,0.03,0.0,WeatherDisplay:10.37,2013-10-17 21:21:00,
2013-10-17 22:31:00,56.5,54.8,29.80,SE,145,6.0,7.0,94,0.00,CLR,,0.03,0.0,WeatherDisplay:10.37,2013-10-17 21:31:00,
2013-10-17 22:36:00,56.4,54.7,29.80,SE,145,5.0,7.0,94,0.00,CLR,,0.03,0.0,WeatherDisplay:10.37,2013-10-17 21:36:00,
2013-10-17 22:41:00,56.3,54.6,29.80,SE,146,6.0,9.0,94,0.00,CLR,,0.03,0.0,WeatherDisplay:10.37,2013-10-17 21:41:00,
2013-10-17 22:51:00,56.5,54.8,29.80,SSE,153,6.0,10.0,94,0.00,CLR,,0.03,0.0,WeatherDisplay:10.37,2013-10-17 21:51:00,
2013-10-17 22:56:00,56.5,54.8,29.80,SSE,151,7.0,12.0,94,0.00,CLR,,0.03,0.0,WeatherDisplay:10.37,2013-10-17 21:56:00,
2013-10-17 23:01:00,56.6,54.9,29.80,SSE,148,6.0,9.0,94,0.00,CLR,,0.03,0.0,WeatherDisplay:10.37,2013-10-17 22:01:00,
2013-10-17 23:11:00,56.7,55.0,29.80,SSE,151,5.0,9.0,94,0.00,CLR,,0.03,0.0,WeatherDisplay:10.37,2013-10-17 22:11:00,
2013-10-17 23:16:00,56.7,55.0,29.80,SSE,151,7.0,9.0,94,0.00,CLR,,0.03,0.0,WeatherDisplay:10.37,2013-10-17 22:16:00,
2013-10-17 23:21:00,56.7,55.0,29.80,SSE,152,6.0,10.0,94,0.00,CLR,,0.03,0.0,WeatherDisplay:10.37,2013-10-17 22:21:00,
2013-10-17 23:26:00,56.6,54.9,29.80,SSE,153,7.0,12.0,94,0.00,CLR,,0.03,0.0,WeatherDisplay:10.37,2013-10-17 22:26:00,
2013-10-17 23:31:00,56.6,54.9,29.80,SSE,156,5.0,10.0,94,0.00,CLR,,0.03,0.0,WeatherDisplay:10.37,2013-10-17 22:31:00,
2013-10-17 23:41:00,56.5,54.8,29.80,SSE,155,6.0,10.0,94,0.00,CLR,,0.03,0.0,WeatherDisplay:10.37,2013-10-17 22:41:00,
2013-10-17 23:46:00,56.5,54.8,29.80,SSE,154,6.0,8.0,94,0.00,CLR,,0.03,0.0,WeatherDisplay:10.37,2013-10-17 22:46:00,
2013-10-17 23:51:00,56.5,54.8,29.80,SSE,155,6.0,12.0,94,0.00,CLR,,0.03,0.0,WeatherDisplay:10.37,2013-10-17 22:51:00,